DECAYED

COSMOS 2251 DEB, 33890 (Decayed)

Orbit data source: Space-Track

COSMOS 2251 DEB, 33890 was space debris in LEO originally from a launch on Wed, 16 Jun 1993 UTC launched from the Plesetsk Missile And Space Complex (PKMTR). The debris from Iridium 33, an American commercial communications satellite, has been tracked extensively since its accidental collision with the defunct Russian satellite Cosmos 2251 in 2009. This event, occurring at high speed in low Earth orbit (LEO), generated thousands of pieces of space debris, significantly increasing the risk of further collisions. The Iridium 33 debris cloud has impacted space traffic management and orbital debris mitigation strategies, making it a subject of ongoing study in space situational awareness.

Not visible in the next 10 days
Identifier
33890, 1993-036CT
Orbit
Decayed
Country
Flag of CISCIS
Related business
Manufacturer
Unknown
Mission
Decayed spacecraft
Bus & Motor
Unknown
Mass
Unknown
Launch date (UTC)
1993-06-16 (33 years ago)
Launch vehicle
Unknown
Launch site
Plesetsk Missile And Space Complex (PKMTR)
Object type
Payload
Rocket body
Debris
Shape & HBR
Unknown shape, 0.1 m
Radar Cross Section
Small (<0.1 m²)

Expand to show TLE details & history
Last TLE update: 7 months ago

TLE from 7 months ago
0 COSMOS 2251 DEB
1 33890U 93036CT  25189.32020258  .04811925  63531-1  84078-2 0  9999
2 33890  73.9638 161.9194 0019423 217.3653 142.6241 16.07861922871220
Epoch: 2025-07-08T07:41Z
TLE epoch observation values (Epoch: 2025-07-08T07:41:05.502Z)
Latitude
Longitude
120.1296°
Altitude
265.772 km
Speed
7.742 km/s
True Right ascension
10h 47m 40s
True Declination
0° 00' 00"
Sunlit
Object was in daylight at epoch
Visualization orbit readout
Latitude
Unknown
Longitude
Unknown
Altitude
Unknown
Speed
Unknown
Apparent Right ascension
Unknown
Apparent Declination
Unknown
Sunlit
N/A
Visualization observer readout
Local Sidereal Time
09:20:28
Azimuth
Unknown
Elevation
Unknown
Doppler factor
Unknown
Orbital elements
Apogee altitude
263.033 km
Perigee altitude
237.285 km
Semi-major axis
6,628.296 km
Eccentricity
0.00194
Inclination
73.9638°
RAAN
161.9194°
Arg. of periapsis
217.3653°
True anomaly
142.75895°
Mean anomaly
142.6241°
Eccentric anomaly
142.69155°
Mean motion
4.02198 °/min
Orbital period
89.51 mins
BSTAR
0.0084078
Loading maneuver chart data...
Computing Atmospheric mass density...

Documentation

Showing up to 5 results
|